This demonstration page uses our WeatherBlox Daily Observations layout. Learn more.

Left ArrowRight Arrow

Hourly Observations for April 11, 2016

Temp ( °F °C ) Dew Point ( °F °C ) Humidity (%) Winds ( mph kmh ) Pressure ( in mb ) Visibility ( mi km ) Precip ( " mm )
12:54 am 00:54 Cloudy 47 8.3 35 1.7 63 63 NNE 5 7 30.01 1016 10 16 0.00 0.00
1:54 am 01:54 Clear 46 7.8 31 -0.6 56 56 NNE 18 30 30.01 1016 10 16 0.00 0.00
2:54 am 02:54 Mostly Cloudy 42 5.6 26 -3.3 53 53 N 16 26 30.03 1017 10 16 0.00 0.00
3:54 am 03:54 Clear 40 4.4 25 -3.9 55 55 N 14 22 30.05 1018 10 16 0.00 0.00
4:54 am 04:54 Clear 38 3.3 23 -5 55 55 N 13 20 30.08 1019 10 16 0.00 0.00
5:54 am 05:54 Clear 36 2.2 24 -4.4 62 62 NNW 9 15 30.10 1019 10 16 0.00 0.00
6:54 am 06:54 Sunny 34 1.1 23 -5 64 64 N 7 11 30.14 1021 10 16 0.00 0.00
7:54 am 07:54 Sunny 36 2.2 23 -5 59 59 NNW 7 11 30.19 1022 10 16 0.00 0.00
8:54 am 08:54 Sunny 40 4.4 23 -5 51 51 N 14 22 30.22 1023 10 16 0.00 0.00
9:54 am 09:54 Sunny 45 7.2 22 -5.6 40 40 N 17 28 30.22 1023 10 16 0.00 0.00
10:54 am 10:54 Sunny 48 8.9 18 -7.8 30 30 N 18 30 30.22 1023 10 16 0.00 0.00
11:54 am 11:54 Sunny 50 10 18 -7.8 28 28 N 21 33 30.22 1023 10 16 0.00 0.00
12:54 pm 12:54 Sunny 52 11.1 21 -6.1 30 30 N 14 22 30.21 1023 10 16 0.00 0.00
1:54 pm 13:54 Sunny 54 12.2 19 -7.2 25 25 N 23 37 30.19 1023 10 16 0.00 0.00
2:54 pm 14:54 Sunny 56 13.3 19 -7.2 24 24 N 15 24 30.20 1023 10 16 0.00 0.00
3:54 pm 15:54 Sunny 56 13.3 19 -7.2 24 24 N 16 26 30.19 1023 10 16 0.00 0.00
4:54 pm 16:54 Sunny 56 13.3 17 -8.3 22 22 NNW 12 19 30.19 1022 10 16 0.00 0.00
5:54 pm 17:54 Sunny 55 12.8 17 -8.3 22 22 N 17 28 30.19 1022 10 16 0.00 0.00
6:54 pm 18:54 Sunny 53 11.7 17 -8.3 24 24 N 15 24 30.21 1023 10 16 0.00 0.00
7:54 pm 19:54 Sunny 46 7.8 18 -7.8 32 32 N 8 13 30.23 1024 10 16 0.00 0.00
8:54 pm 20:54 Clear 39 3.9 17 -8.3 41 41 NE 8 13 30.26 1025 10 16 0.00 0.00
9:54 pm 21:54 Clear 37 2.8 16 -8.9 42 42 NNE 6 9 30.28 1025 10 16 0.00 0.00
10:54 pm 22:54 Clear 39 3.9 14 -10 36 36 E 6 9 30.28 1025 10 16 0.00 0.00
11:54 pm 23:54 Clear 38 3.3 14 -10 37 37 N 3 6 30.28 1026 10 16 0.00 0.00

Powered by AerisWeather